Wind_Speed
53 52 52 51 51 49 48 48 47 48 48 49 49 49 51 51 51 50 49 48 46 45 43 44 45 47 50 52 55 57 59 59 61 62 62 61 62 62 61 59 58 57 57
54 55 57 54 55 53 51 52 52 53 53 55 54 54 55 55 56 55 54 52 51 50 50 49 50 53 55 56 59 61 63 63 63 63 63 63 62 62 62 59 59 58 58
59 56 58 58 57 56 56 56 56 58 59 60 60 59 60 60 61 60 59 57 56 56 55 54 55 57 59 60 63 64 66 65 65 65 65 63 63 62 60 58 57 56 58
64 61 62 62 62 61 61 61 63 64 64 65 66 65 66 65 66 64 63 61 60 60 60 60 61 63 64 65 66 66 66 65 64 65 65 63 59 56 55 50 50 51 51
70 69 68 68 68 68 67 67 68 69 70 70 70 71 71 71 71 69 68 66 64 62 63 64 66 67 68 69 70 69 69 64 60 60 60 56 53 51 51 54 53 52 53
76 76 76 75 74 74 74 74 74 74 75 75 76 76 76 75 75 74 72 70 67 65 66 68 70 70 72 72 73 72 72 64 59 57 57 58 59 58 59 58 61 62 60
82 82 83 83 82 81 82 82 80 81 80 81 81 81 79 78 81 79 77 74 71 69 69 72 74 75 76 77 77 76 72 65 62 59 59 60 62 64 65 65 65 66 69
89 91 90 90 90 89 90 89 88 87 86 87 86 86 85 83 85 83 80 78 75 73 74 76 78 80 80 81 81 80 73 68 66 66 67 68 70 71 72 74 74 74 72
97 100 98 96 95 95 95 94 92 91 91 91 91 90 89 88 88 86 83 80 79 79 80 80 82 85 85 85 85 81 76 73 72 73 74 75 78 79 80 81 83 82 81
102 103 102 101 100 98 98 97 95 93 94 94 93 94 93 91 91 90 88 84 84 85 86 86 87 89 89 90 87 84 80 78 78 80 82 83 85 88 88 89 90 90 89
105 104 103 103 104 100 100 98 97 97 98 97 97 97 97 97 96 93 92 91 90 91 91 92 94 94 93 93 90 87 85 85 86 88 90 91 92 94 96 97 98 99 98
112 109 108 105 104 103 101 100 101 100 99 100 100 100 102 100 98 97 98 97 96 97 98 99 99 98 98 96 93 92 93 93 93 95 97 98 100 102 103 105 105 106 106
109 109 109 109 109 107 105 103 102 102 104 105 105 105 104 102 102 103 103 103 104 104 104 104 104 103 101 99 100 100 100 100 102 104 105 107 107 109 111 110 111 112 113
110 109 108 108 107 106 107 109 109 110 109 110 109 106 105 107 108 108 109 108 107 107 108 110 109 107 106 106 108 108 109 110 112 112 114 114 114 115 116 118 116 117 115
111 110 110 112 113 114 115 116 117 117 117 115 111 110 112 112 112 112 112 112 110 110 111 112 113 114 112 113 116 118 118 120 119 120 123 122 119 118 117 117 115 115 115
119 118 119 118 119 120 122 122 122 119 117 117 117 116 117 117 118 116 115 115 114 114 115 116 118 119 120 123 126 126 125 124 127 126 121 116 113 111 109 108 111 108 110
122 123 123 124 123 124 124 122 123 122 123 123 122 122 121 121 120 119 117 117 117 117 122 123 125 128 131 128 131 132 131 126 117 113 108 106 106 106 106 107 107 102 106
129 128 129 129 129 128 128 127 127 127 127 127 126 125 124 122 122 122 123 125 126 127 128 132 134 133 136 134 125 118 112 107 103 104 103 101 99 102 102 103 105 103 104
135 134 134 133 132 133 132 131 131 129 128 126 125 125 126 125 126 128 130 131 134 135 138 134 128 124 120 116 111 109 106 104 101 99 96 95 96 98 99 97 100 102 102
130 131 130 130 128 127 126 124 123 124 125 129 130 129 132 135 134 135 137 137 133 128 121 118 119 114 115 114 111 106 104 103 99 97 97 99 96 95 92 94 93 96 100
125 125 126 126 127 128 128 128 129 130 133 134 137 138 133 135 138 133 130 125 123 119 117 115 115 112 112 112 111 109 106 106 102 101 103 99 98 95 94 95 96 96 99
131 131 130 130 131 132 132 132 131 132 131 130 129 128 125 123 122 123 123 118 115 115 115 113 114 112 111 111 111 110 106 106 105 105 105 103 99 96 97 96 96 99 99
134 133 132 129 127 125 124 124 124 124 127 124 121 121 119 116 113 112 113 114 112 112 113 111 110 111 111 109 108 108 107 104 104 103 103 100 99 98 97 97 98 97 96
122 123 124 124 123 120 117 114 114 112 112 113 113 112 113 113 112 112 113 110 108 108 107 105 105 106 105 105 105 103 106 105 102 101 98 97 96 95 97 97 95 95 94
109 109 109 110 111 110 109 109 108 107 107 108 107 107 106 107 107 106 104 104 103 103 104 101 101 102 103 107 107 104 103 102 101 100 97 95 93 94 94 93 93 92 92
101 101 102 102 103 103 103 103 102 100 99 99 100 100 100 99 99 99 97 97 99 99 98 97 96 99 99 100 101 102 102 101 100 98 95 93 93 94 93 92 91 91 91
Wind_Direction
286 285 285 287 288 287 287 288 289 292 295 297 299 301 303 306 308 309 307 303 293 286 285 287 291 295 296 299 300 300 298 295 291 288 286 284 282 281 282 281 280 277 274
281 282 285 284 284 286 287 288 289 291 293 295 297 299 301 304 305 306 305 301 294 286 284 287 291 295 297 299 301 302 302 296 289 285 284 282 280 281 281 280 279 276 274
280 279 280 281 283 285 286 288 289 290 292 295 296 298 299 301 303 303 302 300 294 288 283 285 289 294 297 299 302 303 303 297 288 282 280 281 279 279 279 279 278 276 275
280 280 279 280 282 283 285 287 288 290 292 294 297 299 299 300 301 300 300 298 295 287 282 284 288 293 295 298 301 303 303 297 287 282 279 277 277 277 276 277 283 282 281
280 281 281 282 283 286 287 289 291 292 294 295 296 298 298 299 299 299 298 297 294 286 282 283 286 290 294 296 299 301 302 295 287 284 278 274 275 277 281 288 288 289 289
282 284 285 285 286 288 289 290 291 293 293 294 295 296 297 298 296 297 297 296 293 286 282 284 287 290 292 295 298 299 300 293 286 284 281 276 278 282 284 288 292 293 291
280 282 283 285 287 288 289 291 291 291 292 292 294 295 297 295 295 296 295 294 291 287 285 285 287 289 291 294 296 299 298 293 289 286 284 283 284 285 286 287 288 290 291
279 280 280 283 285 288 288 290 291 290 290 291 292 293 293 292 293 293 293 292 289 287 285 286 288 289 292 293 296 298 297 292 291 289 287 287 287 288 287 287 289 289 289
278 278 281 283 285 286 286 287 287 287 288 289 290 290 291 291 292 291 291 290 289 287 285 286 287 289 291 292 294 295 294 292 291 291 290 287 288 288 287 286 286 286 286
274 277 281 282 283 283 283 284 284 284 285 287 287 288 289 289 290 290 290 290 288 286 285 286 287 288 291 292 293 293 291 290 289 289 288 287 286 287 286 285 285 284 284
279 279 279 280 281 283 282 282 282 282 284 286 287 288 288 288 288 288 289 288 287 286 286 286 287 289 291 291 291 290 288 288 288 287 287 286 285 285 283 283 283 283 283
278 278 278 277 278 278 278 278 279 280 282 283 285 285 287 287 287 286 287 288 287 287 287 288 288 289 289 290 289 289 288 288 287 286 284 284 283 283 282 282 282 281 281
275 275 275 276 277 278 278 279 279 281 283 284 285 286 286 286 286 286 286 287 287 288 288 288 288 288 289 289 288 288 288 288 287 286 284 283 283 282 281 280 280 280 280
273 274 276 277 279 279 280 280 281 282 283 284 284 283 284 284 285 286 286 287 287 287 287 288 289 288 289 289 289 288 288 287 286 285 284 283 282 281 280 279 280 279 278
274 275 276 277 277 278 279 279 280 282 282 283 282 282 283 284 284 285 285 286 285 284 285 286 286 288 288 288 287 287 287 286 286 286 283 282 282 280 279 278 277 275 274
273 273 273 274 274 276 277 278 280 281 281 281 282 283 283 283 284 284 284 284 284 285 285 285 285 285 285 286 285 285 285 286 284 283 281 280 279 277 274 272 274 276 276
273 273 274 274 275 276 277 277 278 278 280 280 281 281 282 283 283 283 283 283 283 284 284 284 283 283 284 285 284 284 282 281 278 278 277 277 275 274 272 273 274 274 270
274 275 276 277 277 277 278 278 278 278 279 280 280 280 281 281 282 283 284 283 283 281 282 281 282 281 280 281 280 277 276 276 274 273 273 272 271 271 272 270 271 270 268
274 274 274 275 275 276 277 277 278 279 280 280 281 281 281 280 280 280 280 281 282 282 281 280 279 280 280 280 280 279 278 278 277 277 276 274 274 272 267 266 271 269 270
274 274 275 275 276 276 277 277 278 278 278 279 279 279 279 280 281 282 281 281 281 280 281 281 281 282 281 281 280 279 279 280 280 280 280 278 278 275 274 274 272 275 274
275 275 276 277 277 277 277 278 278 278 278 278 279 279 279 280 280 280 280 280 280 280 280 279 278 280 279 279 279 280 280 280 281 282 280 280 280 279 279 279 278 275 274
276 277 277 277 277 277 278 278 278 278 278 277 277 278 278 279 280 279 279 279 278 278 278 277 275 275 277 277 276 277 278 279 280 280 280 279 279 279 278 277 277 276 275
276 277 277 277 276 276 277 277 277 277 278 277 276 277 278 277 277 277 277 277 276 276 276 275 275 276 275 275 277 277 278 278 278 277 276 277 277 277 278 278 277 276 276
275 275 276 277 278 278 277 277 277 277 276 276 277 276 276 276 276 275 274 275 275 275 273 272 272 273 274 273 274 276 276 277 276 275 275 274 276 277 276 276 275 275 275
275 275 276 276 276 277 277 277 277 277 276 276 276 275 274 274 274 273 273 274 273 273 273 274 274 275 275 275 276 276 275 275 276 276 276 276 276 275 274 275 275 275 274
277 276 276 276 277 277 277 277 277 276 276 275 275 275 274 274 274 273 273 273 273 274 274 274 273 273 273 274 274 274 275 276 276 276 277 277 275 275 275 274 274 273 272
Height
10683 10683 10682 10682 10680 10681 10679 10678 10677 10676 10674 10673 10671 10669 10667 10665 10662 10660 10658 10656 10654 10651 10649 10646 10644 10642 10640 10637 10635 10632 10630 10627 10624 10620 10617 10614 10610 10607 10604 10602 10600 10598 10597
10674 10671 10666 10670 10667 10668 10667 10666 10665 10663 10662 10660 10659 10657 10654 10652 10649 10648 10645 10642 10640 10637 10635 10632 10629 10627 10624 10621 10619 10615 10612 10609 10605 10602 10599 10597 10593 10592 10588 10586 10584 10582 10580
10656 10661 10656 10655 10654 10655 10654 10653 10652 10650 10648 10646 10644 10643 10640 10638 10634 10633 10631 10628 10625 10622 10620 10617 10614 10611 10608 10605 10602 10598 10594 10590 10587 10584 10582 10580 10577 10575 10572 10570 10569 10567 10566
10638 10644 10641 10641 10640 10641 10640 10640 10637 10634 10633 10631 10628 10626 10624 10622 10619 10617 10615 10613 10610 10606 10603 10600 10598 10595 10591 10588 10584 10580 10576 10571 10568 10566 10564 10563 10561 10559 10556 10557 10553 10551 10549
10622 10623 10623 10624 10623 10624 10623 10622 10620 10616 10614 10612 10610 10608 10606 10604 10600 10598 10597 10595 10592 10589 10586 10583 10581 10578 10574 10571 10567 10563 10559 10553 10550 10548 10546 10545 10545 10545 10543 10538 10538 10537 10534
10601 10601 10600 10603 10604 10605 10603 10604 10602 10598 10595 10593 10591 10590 10588 10585 10580 10579 10577 10575 10572 10570 10567 10564 10561 10559 10555 10552 10549 10545 10541 10537 10532 10530 10529 10529 10527 10526 10525 10524 10519 10516 10516
10585 10584 10581 10582 10584 10586 10582 10582 10582 10578 10575 10572 10570 10568 10568 10566 10560 10558 10556 10554 10552 10550 10548 10544 10542 10539 10535 10532 10528 10525 10522 10518 10514 10511 10510 10508 10507 10505 10503 10502 10503 10500 10494
10572 10566 10566 10567 10568 10569 10565 10563 10562 10558 10555 10551 10549 10547 10546 10545 10540 10537 10535 10533 10530 10528 10525 10523 10520 10515 10513 10509 10506 10503 10500 10497 10494 10491 10488 10486 10483 10482 10480 10479 10480 10478 10479
10551 10543 10549 10552 10551 10550 10546 10543 10542 10539 10536 10531 10528 10526 10523 10522 10518 10515 10514 10511 10509 10505 10502 10501 10497 10492 10490 10486 10483 10480 10477 10474 10473 10470 10467 10464 10459 10458 10457 10457 10455 10454 10455
10527 10523 10525 10526 10525 10526 10522 10519 10518 10517 10511 10509 10505 10502 10499 10498 10495 10490 10488 10488 10485 10481 10477 10475 10473 10468 10465 10461 10458 10455 10453 10450 10448 10445 10443 10442 10437 10433 10431 10429 10428 10427 10428
10508 10504 10501 10498 10495 10498 10494 10492 10490 10490 10486 10483 10481 10477 10473 10470 10469 10466 10462 10461 10459 10454 10451 10448 10444 10441 10439 10434 10432 10430 10427 10426 10423 10420 10417 10414 10412 10408 10404 10401 10399 10397 10398
10478 10478 10475 10473 10471 10470 10470 10467 10464 10464 10461 10457 10456 10453 10447 10443 10441 10438 10436 10432 10429 10425 10422 10419 10416 10414 10410 10406 10403 10403 10399 10398 10396 10393 10390 10386 10384 10379 10376 10372 10368 10366 10364
10451 10446 10444 10443 10443 10441 10440 10438 10437 10436 10434 10428 10426 10422 10418 10415 10412 10409 10406 10402 10399 10395 10391 10387 10384 10383 10380 10377 10374 10372 10370 10368 10366 10363 10359 10354 10351 10347 10343 10341 10336 10334 10331
10423 10421 10417 10414 10412 10411 10409 10406 10404 10403 10402 10399 10397 10393 10389 10386 10383 10379 10376 10373 10369 10364 10359 10353 10350 10349 10346 10343 10339 10339 10337 10336 10333 10329 10324 10321 10318 10314 10309 10305 10304 10300 10298
10392 10392 10390 10386 10384 10381 10378 10375 10373 10371 10370 10368 10365 10362 10359 10356 10353 10350 10345 10342 10338 10334 10331 10326 10321 10315 10316 10314 10308 10304 10301 10300 10296 10291 10287 10284 10280 10276 10272 10268 10266 10264 10262
10360 10361 10359 10357 10355 10352 10348 10344 10341 10338 10336 10334 10331 10328 10324 10322 10317 10317 10313 10309 10307 10302 10297 10295 10290 10286 10284 10279 10275 10271 10267 10262 10257 10252 10247 10244 10241 10238 10236 10233 10228 10230 10230
10329 10327 10325 10322 10321 10317 10315 10313 10310 10307 10303 10300 10298 10294 10291 10285 10282 10279 10277 10274 10272 10268 10263 10259 10257 10251 10243 10241 10236 10231 10229 10230 10222 10216 10212 10209 10206 10203 10201 10197 10196 10196 10194
10290 10288 10285 10284 10281 10280 10276 10274 10271 10269 10267 10263 10259 10257 10254 10251 10245 10242 10238 10236 10234 10232 10229 10224 10218 10213 10209 10201 10200 10196 10192 10190 10187 10183 10179 10176 10173 10170 10167 10164 10163 10161 10160
10248 10248 10247 10246 10243 10241 10240 10238 10233 10231 10227 10224 10221 10217 10211 10212 10211 10207 10203 10199 10192 10191 10187 10181 10177 10169 10162 10157 10155 10153 10151 10149 10147 10145 10143 10139 10135 10132 10129 10133 10131 10128 10124
10211 10209 10208 10205 10204 10203 10201 10199 10195 10194 10191 10186 10182 10182 10176 10168 10166 10163 10159 10157 10152 10144 10140 10135 10130 10126 10121 10118 10115 10116 10115 10113 10112 10110 10106 10104 10102 10098 10094 10097 10097 10096 10089
10175 10173 10168 10166 10164 10160 10158 10157 10155 10152 10148 10146 10139 10134 10133 10129 10123 10118 10112 10111 10106 10104 10100 10097 10094 10088 10087 10081 10080 10078 10079 10076 10075 10074 10071 10068 10066 10065 10063 10061 10062 10059 10055
10133 10131 10128 10126 10123 10119 10115 10111 10108 10105 10102 10097 10095 10091 10087 10083 10080 10078 10072 10070 10069 10065 10061 10061 10058 10056 10052 10049 10047 10045 10043 10041 10041 10039 10036 10034 10033 10032 10030 10030 10028 10024 10020
10089 10086 10084 10080 10077 10074 10073 10069 10067 10065 10058 10054 10054 10051 10046 10042 10040 10038 10034 10032 10032 10029 10026 10026 10022 10017 10015 10012 10010 10007 10006 10007 10007 10006 10004 10002 10001 9999 9998 9994 9992 9990 9986
10053 10048 10043 10039 10033 10031 10028 10026 10023 10022 10021 10016 10012 10011 10007 10004 10003 10001 9998 9996 9992 9990 9990 9989 9988 9983 9979 9978 9975 9972 9971 9969 9969 9970 9971 9971 9968 9965 9963 9960 9958 9955 9953
10018 10015 10011 10004 9997 9995 9992 9989 9986 9985 9983 9979 9975 9972 9970 9967 9966 9964 9962 9959 9957 9955 9952 9951 9949 9945 9943 9938 9937 9937 9935 9934 9932 9934 9935 9935 9934 9932 9927 9925 9925 9924 9924
9985 9981 9976 9971 9964 9959 9956 9950 9948 9949 9946 9942 9937 9933 9932 9930 9929 9928 9926 9924 9922 9918 9918 9916 9914 9912 9910 9906 9904 9902 9901 9900 9898 9898 9902 9902 9896 9893 9892 9896 9896 9896 9894